This is the latest recevied weather packets stored in our database for station/object PI1GDA-1. If no packets are shown the sender has not sent any weather packets the latest 1 day(s).
| Time | Temp. | Humidity | Pressure | Rain* | Wind** | Luminosity | Snow |
|---|---|---|---|---|---|---|---|
| 1777988723 | 15.56° C | 68% | 1011.4 hPa | 0 mm | 3.13 m/s, 90° | - | - |
| 1777988122 | 15.56° C | 69% | 1011.6 hPa | 0 mm | 2.68 m/s, 0° | - | - |
| 1777987521 | 15.56° C | 68% | 1011.7 hPa | 0 mm | 3.13 m/s, 68° | - | - |
| 1777986921 | 15.56° C | 69% | 1011.7 hPa | 0 mm | 3.58 m/s, 45° | - | - |
| 1777986320 | 15.56° C | 69% | 1011.7 hPa | 0 mm | 3.13 m/s, 315° | - | - |
| 1777985720 | 16.11° C | 68% | 1011.7 hPa | 0 mm | 3.13 m/s, 45° | - | - |
| 1777985119 | 16.11° C | 67% | 1011.7 hPa | 0 mm | 2.68 m/s, 45° | - | - |
| 1777984519 | 15.56° C | 69% | 1011.7 hPa | 0 mm | 2.68 m/s, 45° | - | - |
| 1777983919 | 15° C | 71% | 1011.7 hPa | 0 mm | 3.13 m/s, 68° | - | - |
| 1777983318 | 15° C | 71% | 1011.7 hPa | 0 mm | 3.13 m/s, 68° | - | - |
| 1777982717 | 15° C | 72% | 1011.8 hPa | 0 mm | 3.58 m/s, 22° | - | - |
| 1777982117 | 15° C | 71% | 1011.6 hPa | 0 mm | 3.13 m/s, 90° | - | - |
| 1777981516 | 15° C | 71% | 1011.7 hPa | 0 mm | 2.68 m/s, 22° | - | - |
| 1777980915 | 14.44° C | 72% | 1011.9 hPa | 0 mm | 2.68 m/s, 112° | - | - |
| 1777980313 | 14.44° C | 75% | 1012 hPa | 0 mm | 2.68 m/s, 0° | - | - |
| 1777979711 | 14.44° C | 75% | 1012.1 hPa | 0 mm | 2.68 m/s, 45° | - | - |
| 1777979109 | 13.89° C | 74% | 1012.1 hPa | 0 mm | 2.68 m/s, 22° | - | - |
| 1777978507 | 14.44° C | 74% | 1012.1 hPa | 0 mm | 2.68 m/s, 45° | - | - |
| 1777977906 | 13.33° C | 75% | 1012.1 hPa | 0 mm | 2.24 m/s, 45° | - | - |
| 1777977306 | 13.33° C | 76% | 1012.2 hPa | 0 mm | 2.68 m/s, 45° | - | - |
| 1777976704 | 13.89° C | 76% | 1012.3 hPa | 0 mm | 2.68 m/s, 68° | - | - |
* Rain latest hour (hover to see other rain measurements)
** Current wind speed in m/s (hover to see current wind gust speed)